Location: Guadanolo
(41.9167°N, 12.9333°E)
Time: 09:52:13
(UTC+00:00)

Cosmos 1461 - Pass Details

Date: 16 September 2019
Orbit: 525 x 643 km, 65.0° (Epoch: 19 October)

Event Time Altitude Azimuth Distance (km) Brightness Sun altitude
Rises 17:54:48 0° 196° (SSW) 2,701 6.4 -7.8°
Reaches altitude 10° 17:57:04 10° 190° (S) 1,797 5.4 -8.3°
Maximum altitude 18:00:54 45° 118° (ESE) 738 3.0 -9.0°
Drops below altitude 10° 18:04:41 10° 45° (NE) 1,776 5.1 -9.6°
Sets 18:06:55 0° 39° (NE) 2,665 6.1 -10.1°
